Regional Weather Roundup
Issued by NWS Sterling, VA

Home | Current Version | Previous Version | Graphics & Text | Print | Product List | Glossary On
Versions: 1 2 3 4 5 6 7 8 9 10 11 12 13 14 15 16 17 18 19 20 21 22 23 24 25 26 27 28 29 30 31 32 33 34 35 36 37 38 39 40 41 42 43 44 45 46 47 48 49 50
000
ASUS41 KLWX 250910
RWRLWX

REGIONAL WEATHER ROUNDUP
NATIONAL WEATHER SERVICE BALTIMORE MD/WASHINGTON DC
400 AM EST SAT FEB 25 2017

Note: "FAIR" indicates few or no clouds below 12,000 feet
with no significant weather and/or obstructions to visibility.
 TC=TEMPERATURE CELSIUS

 * =Non NWS site. Station does not report precipitation (e.g. rain,
    snow, etc.), thunder, or fog.

DCZ001-MDZ009-015-VAZ040>042-051-053>054-251000-
WASHINGTON METRO

CITY           SKY/WX    TMP DP  RH WIND       PRES   REMARKS
WASHINGTON NAT PTCLDY    61  58  90 S14       29.74S
DULLES         CLOUDY    60  56  86 S7        29.72F
ANDREWS AFB    CLOUDY    60  57  89 S16       29.73F
FT BELVOIR     CLOUDY    58  55  89 SE6       29.73F
QUANTICO       CLOUDY    56  55  97 S9        29.74F
COLLEGE PARK*  PTCLDY    61  55  82 S7        29.73S
LEESBURG*      PTCLDY    59  59 100 MISG      29.72F
MANASSAS*        N/A     59  56  89 S7        29.73F
GAITHERSBURG*  MOCLDY    59  54  82 S8        29.76F

$$

MDZ006>007-011-014-251000-
BALTIMORE METRO

CITY           SKY/WX    TMP DP  RH WIND       PRES   REMARKS
BWI AIRPORT    MOCLDY    53  53 100 E3        29.74F
MD SCIENCE CTR   N/A     57  53  86 MISG      29.75F
MARTIN STATE   PTCLDY    52  52 100 E3        29.76F
ANNAPOLIS      CLEAR     54  53  97 S6        29.75F
FORT MEADE*    PTCLDY    54  52  94 SE5       29.76S

$$

MDZ012-015-019>023-251000-
MARYLAND EASTERN SHORE

CITY           SKY/WX    TMP DP  RH WIND       PRES   REMARKS
OCEAN CITY     CLEAR     50  49  96 CALM      29.80F FOG
SALISBURY      PTCLDY    53  53 100 CALM      29.78F
BAY BRIDGE AP* CLEAR     55  54  94 SE7       29.75F
CAMBRIDGE*       N/A     55  54  94 S6        29.77F
EASTON*        CLEAR     60  56  87 S10       29.80F

$$

MDZ017>025-251000-
SOUTHERN MARYLAND

CITY           SKY/WX    TMP DP  RH WIND       PRES   REMARKS
PATUXENT RIVER PTCLDY    60  58  92 S7        29.76F
ST INIGOES     CLEAR     59  56  89 SE6       29.76F
LEONARDTOWN*   CLOUDY    59  55  88 SE5       29.78S

$$

MDZ003>005-251000-
NORTH CENTRAL MARYLAND

CITY           SKY/WX    TMP DP  RH WIND       PRES   REMARKS
FREDERICK*     PTCLDY    61  61 100 S9        29.72F
HAGERSTOWN APT PTCLDY    62  57  83 S12       29.68S
WESTMINSTER*   MOCLDY    57  57 100 SE8       29.71F

$$

MDZ501>502-251000-
WESTERN MARYLAND

CITY           SKY/WX    TMP DP  RH WIND       PRES   REMARKS
OAKLAND*       CLOUDY    54  45  71 S12G17    29.65F
CUMBERLAND*    PTCLDY    55  50  82 CALM      29.66F

$$

VAZ025>031-251000-
SHENANDOAH VALLEY

CITY           SKY/WX    TMP DP  RH WIND       PRES   REMARKS
WINCHESTER*    MOCLDY    59  52  77 S3        29.67F
FRONT ROYAL*   PTCLDY    61  54  77 S7        29.67F
LURAY*         PTCLDY    61  54  77 SW8       29.68F
NEW MARKET*    PTCLDY    58  50  76 W6        29.67F
STAUNTON*      PTCLDY    60  52  75 S8        29.71F
WAYNESBORO*    MOCLDY    59  51  75 E7        29.71F

$$

WVZ021-048>050-054>055-251000-
EASTERN WEST VIRGINIA PANHANDLE

CITY           SKY/WX    TMP DP  RH WIND       PRES   REMARKS
MARTINSBURG    MOCLDY    60  54  80 S7        29.67S
PETERSBURG*    CLEAR     63  52  67 SE6       29.65F

$$

VAZ036>039-050-251000-
CENTRAL FOOTHILLS

CITY           SKY/WX    TMP DP  RH WIND       PRES   REMARKS
CHARLOTTESVILL PTCLDY    62  55  77 S9        29.72F
CULPEPER*      CLOUDY    59  57  94 CALM      29.73F
ORANGE*        CLOUDY    61  55  82 CALM      29.74S
GORDONSVILLE*  CLOUDY    62  58  86 S5        29.72F
WARRENTON*     CLOUDY    61  55  79 CALM      29.73S

$$

VAZ055>057-251000-
NORTH AND CENTRAL PIEDMONT

CITY           SKY/WX    TMP DP  RH WIND       PRES   REMARKS
FREDERICKSBRG* PTCLDY    61  59  92 S9        29.73S
STAFFORD*      CLOUDY    59  58  97 S5        29.77F

$$

NCZ024-NYZ072-PAZ021-071-VAZ022-071-251000-
OTHER REGIONAL OBSERVATIONS

CITY           SKY/WX    TMP DP  RH WIND       PRES   REMARKS
NEW YORK CITY  PTCLDY    55  52  89 CALM      29.83F
PHILADELPHIA   MOCLDY    56  53  90 S5        29.78F
PITTSBURGH     CLOUDY    58  54  86 SW7       29.58S
ROANOKE        MOCLDY    60  52  74 SE7       29.73F
RICHMOND       CLEAR     58  57  97 S9        29.76F
RALEIGH        PTCLDY    59  56  89 S5        29.77F

$$

ANZ530>537-251000-
MARINE OBSERVATIONS

STATION/POSITION TIME  TEMP    WIND        PRES
                       AIR SEA DIR/SP/G
                 (UTC) (F)     (DEG/KT/KT) (MB)
THOMAS PT LIGHT  0900   53 44  160/ 14/ 14   N/A
BALT KEY BRIDGE  0848   56     150/  7/  8 1007.2F
COVE POINT       0848   48     190/  9/  9 1008.4F
LEWISETTA        0848   60 48  210/  8/  9 1007.6F
SOLOMONS ISLAND  0848   58 45  180/ 11/ 12   N/A
PINEY POINT      0848          130/  6/  6   N/A

$$




USA.gov is the U.S. government's official web portal to all federal, state and local government web resources and services.